CD170 EDFE-ZZZZ

Flight info

Callsign CD170
Flight time N/A
Altitude 8000
Route /
Aircraft C172/L-V/N

Departure

Time 2026-04-27 18:17
Airport Frankfurt-Egelsbach Airport (EDFE)

Arrival

Time N/A
Airport ZZZZ
Time Latitude Longitude Altitude Speed Heading
2026-04-27 18:07 49.96198 8.64188 384 ft 0 kts 267°
2026-04-27 18:13 49.96197 8.64183 384 ft 1 kts 230°
2026-04-27 18:13 49.96179 8.64155 385 ft 7 kts 232°
2026-04-27 18:13 49.96163 8.64040 384 ft 16 kts 264°
2026-04-27 18:13 49.96154 8.63831 377 ft 22 kts 262°
2026-04-27 18:14 49.96145 8.63676 376 ft 22 kts 268°
2026-04-27 18:14 49.96133 8.63406 371 ft 26 kts 263°
2026-04-27 18:14 49.96096 8.63222 370 ft 13 kts 224°
2026-04-27 18:14 49.96088 8.63210 370 ft 0 kts 218°
2026-04-27 18:15 49.96087 8.63209 370 ft 3 kts 216°
2026-04-27 18:15 49.96039 8.63222 369 ft 11 kts 87°
2026-04-27 18:16 49.96050 8.63407 371 ft 30 kts 85°
2026-04-27 18:16 49.96076 8.63996 383 ft 75 kts 85°
2026-04-27 18:16 49.96050 8.64894 503 ft 91 kts 99°
2026-04-27 18:16 49.95907 8.65837 670 ft 87 kts 106°
2026-04-27 18:17 49.95624 8.66633 861 ft 82 kts 145°
2026-04-27 18:17 49.95094 8.66509 933 ft 90 kts 242°
2026-04-27 18:17 49.94866 8.65598 988 ft 93 kts 263°
2026-04-27 18:17 49.94812 8.64980 1015 ft 98 kts 273°
2026-04-27 18:18 49.94778 8.64359 1031 ft 101 kts 273°
2026-04-27 18:18 49.94779 8.63173 1002 ft 115 kts 279°
2026-04-27 18:18 49.94828 8.61909 1052 ft 121 kts 285°
2026-04-27 18:19 49.94927 8.60641 1206 ft 118 kts 281°
2026-04-27 18:19 49.94832 8.59358 1308 ft 122 kts 265°
2026-04-27 18:19 49.94886 8.58144 1522 ft 109 kts 308°
2026-04-27 18:19 49.95465 8.57709 1696 ft 96 kts 28°
2026-04-27 18:20 49.95841 8.58687 1387 ft 127 kts 80°
2026-04-27 18:20 49.95880 8.60070 855 ft 123 kts 88°
2026-04-27 18:20 49.95928 8.61290 616 ft 102 kts 83°
2026-04-27 18:20 49.95992 8.62294 468 ft 84 kts 82°
2026-04-27 18:21 49.96026 8.63106 407 ft 67 kts 79°
2026-04-27 18:21 49.96061 8.63669 374 ft 38 kts 85°
2026-04-27 18:21 49.96103 8.63790 377 ft 0 kts 36°
2026-04-27 18:22 49.96129 8.63824 377 ft 9 kts 39°
2026-04-27 18:22 49.96155 8.63908 379 ft 8 kts 90°
2026-04-27 18:23 49.96160 8.64008 383 ft 10 kts 85°
2026-04-27 18:23 49.96168 8.64122 385 ft 8 kts 88°
2026-04-27 18:23 49.96173 8.64198 385 ft 7 kts 88°
2026-04-27 18:23 49.96174 8.64267 385 ft 6 kts 82°
2026-04-27 18:24 49.96178 8.64299 385 ft 0 kts 81°
2026-04-27 18:24 49.96185 8.64303 384 ft 4 kts 339°
2026-04-27 18:24 49.96186 8.64249 384 ft 5 kts 275°
2026-04-27 18:25 49.96197 8.64198 384 ft 4 kts 270°
2026-04-27 18:25 49.96197 8.64196 384 ft 0 kts 269°